Torna al catalogo

DELTA 1 DEB

AttivoLEO
NORAD 10824·DEBRIS·🇺🇸 United States

Lanciato Jul 29, 1976 da Vandenberg Space Force Base

Loading…

Prossimi Passaggi (prossime 24 ore)

TLE

AggiornatoSource: Space-Track

Epoca: Sep 14, 2026, 13:18 UTC

1 10824U 76077BU  26257.55484525  .00011758  00000-0  66886-2 0  9990
2 10824 101.9400 178.7208 0017619 230.4543 305.6074 14.09949034393430

Traccia DELTA 1 DEB in tempo reale con AllMySat

Download on the App Store